Regional Weather Roundup
Issued by NWS Sterling, VA

Current Version | Previous Version | Text Only | Print | Product List | Glossary On
Versions: 1 2 3 4 5 6 7 8 9 10 11 12 13 14 15 16 17 18 19 20 21 22 23 24 25 26 27 28 29 30 31 32 33 34 35 36 37 38 39 40 41 42 43 44 45 46 47 48 49 50
000
ASUS41 KLWX 280311
RWRLWX

REGIONAL WEATHER ROUNDUP
NATIONAL WEATHER SERVICE BALTIMORE MD/WASHINGTON DC
1100 PM EDT SUN MAY 27 2018

Note: "FAIR" indicates few or no clouds below 12,000 feet
with no significant weather and/or obstructions to visibility.
 TC=TEMPERATURE CELSIUS

 * =Non NWS site. Station does not report precipitation (e.g. rain,
    snow, etc.), thunder, or fog.

DCZ001-MDZ009-015-VAZ040>042-051-053>054-280400-
WASHINGTON METRO

CITY           SKY/WX    TMP DP  RH WIND       PRES   REMARKS
WASHINGTON NAT CLOUDY    74  69  85 E7        30.02R
DULLES         CLOUDY    70  70 100 SE3       30.01R
ANDREWS AFB    DRIZZLE   72  70  94 NE10      30.02R FOG
FT BELVOIR     MOCLDY    72  70  94 CALM      30.02R
QUANTICO       LGT RAIN  75  74  96 S5        30.01S
COLLEGE PARK*  CLOUDY    67  65  94 NE5       30.04R
LEESBURG*      CLOUDY    72  70  94 E5        30.03R
MANASSAS*      CLOUDY    71  69  93 N3        30.02R
GAITHERSBURG*  CLOUDY    67  65  93 VRB3      30.05R FOG

$$

MDZ006>007-011-014-280400-
BALTIMORE METRO

CITY           SKY/WX    TMP DP  RH WIND       PRES   REMARKS
BWI AIRPORT    CLOUDY    64  63  96 E14       30.04R
MD SCIENCE CTR   N/A     66  63  90 MISG      30.05R
MARTIN STATE   CLOUDY    63  63 100 E8        30.07R
ANNAPOLIS      CLOUDY    68 N/A N/A E7        30.04R
FORT MEADE*    CLOUDY    64  63  94 E8        30.07R

$$

MDZ012-015-019>023-280400-
MARYLAND EASTERN SHORE

CITY           SKY/WX    TMP DP  RH WIND       PRES   REMARKS
OCEAN CITY     HVY RAIN  62  62 100 NE8       30.06S FOG
SALISBURY      HVY RAIN  63  63 100 E8        30.04S FOG
BAY BRIDGE AP* CLOUDY    64  63  94 E8        30.04R
CAMBRIDGE*       N/A     64  64 100 E6        30.03S FOG
EASTON*        CLOUDY    63  61  93 SE9       30.09R

$$

MDZ017>025-280400-
SOUTHERN MARYLAND

CITY           SKY/WX    TMP DP  RH WIND       PRES   REMARKS
PATUXENT RIVER LGT RAIN  75  70  84 SE7       30.01F
ST INIGOES     LGT RAIN  72  71  97 E3        30.01R
LEONARDTOWN*   CLOUDY    70  70 100 SE3       30.03F

$$

MDZ003>005-280400-
NORTH CENTRAL MARYLAND

CITY           SKY/WX    TMP DP  RH WIND       PRES   REMARKS
FREDERICK*     CLOUDY    72  72 100 E6        30.06R
HAGERSTOWN APT CLOUDY    73  68  84 E7        30.03R
WESTMINSTER*   CLOUDY    64  64 100 SE5         N/A  FOG

$$

MDZ501>502-280400-
WESTERN MARYLAND

CITY           SKY/WX    TMP DP  RH WIND       PRES   REMARKS
OAKLAND*       FAIR      63  63 100 S5        30.09S
CUMBERLAND*    CLOUDY    72  72 100 CALM      30.05R

$$

VAZ025>031-280400-
SHENANDOAH VALLEY

CITY           SKY/WX    TMP DP  RH WIND       PRES   REMARKS
WINCHESTER*    CLOUDY    68  68 100 CALM      30.03S FOG
FRONT ROYAL*   CLOUDY   N/A N/A N/A CALM      30.01R
LURAY*         CLOUDY    70  68  94 CALM      30.03R
NEW MARKET*    MOCLDY    67  66  96 CALM      30.01R
STAUNTON*      CLOUDY    68  67  98 CALM      30.05R
WAYNESBORO*    CLOUDY    70  70 100 S5        30.04R

$$

WVZ021-048>050-054>055-280400-
EASTERN WEST VIRGINIA PANHANDLE

CITY           SKY/WX    TMP DP  RH WIND       PRES   REMARKS
MARTINSBURG    CLOUDY    72  69  90 NE5       30.01R
PETERSBURG*    FAIR      67  66  97 S3        30.02R

$$

VAZ036>039-050-280400-
CENTRAL FOOTHILLS

CITY           SKY/WX    TMP DP  RH WIND       PRES   REMARKS
CHARLOTTESVILL FAIR      72  69  90 CALM      30.01R
CULPEPER*      CLOUDY    72  70  95 CALM      30.02F
ORANGE*        CLOUDY    70  70 100 NW3       30.02R
GORDONSVILLE*  MOCLDY    72  72 100 CALM      30.02R
WARRENTON*     MOCLDY    73  69  88 SE3       30.01S

$$

VAZ055>057-280400-
NORTH AND CENTRAL PIEDMONT

CITY           SKY/WX    TMP DP  RH WIND       PRES   REMARKS
FREDERICKSBRG* CLOUDY    73  73 100 CALM      30.01R
STAFFORD*      MOCLDY    74  74 100 CALM      30.04F FOG

$$

NCZ024-NYZ072-PAZ021-071-VAZ022-071-280400-
OTHER REGIONAL OBSERVATIONS

CITY           SKY/WX    TMP DP  RH WIND       PRES   REMARKS
NEW YORK CITY  CLOUDY    57  52  83 VRB6      30.13R
PHILADELPHIA   CLOUDY    59  57  93 E8        30.09R
PITTSBURGH     MOCLDY    73  67  81 CALM      29.97R
ROANOKE        MOCLDY    70  68  93 CALM      30.06R THUNDER
RICHMOND       CLOUDY    74  69  85 NE3       30.01R
RALEIGH        MOCLDY    74  67  78 S6        30.03R

$$

ANZ530>537-280400-
MARINE OBSERVATIONS

STATION/POSITION TIME  TEMP    WIND        PRES
                       AIR SEA DIR/SP/G
                 (UTC) (F)     (DEG/KT/KT) (MB)
THOMAS PT LIGHT  0300   65 71   80/ 17/ 18 1018.1R
BALT KEY BRIDGE  0242   65      70/ 11/ 14 1017.2R
COVE POINT       0242   71     150/  8/ 12 1017.0R
LEWISETTA        0242   72 77   70/ 10/ 13 1016.4R
SOLOMONS ISLAND  0242   72 74  100/  6/  7 1016.3R
PINEY POINT      0248           60/  2/  3   N/A

$$




USA.gov is the U.S. government's official web portal to all federal, state and local government web resources and services.